This is the latest recevied weather packets stored in our database for station/object KE5WTH-14. If no packets are shown the sender has not sent any weather packets the latest 10 day(s).
| Time | Temp. | Humidity | Pressure | Rain* | Wind** | Luminosity | Snow |
|---|---|---|---|---|---|---|---|
| 1778353744 | 30° C | 60% | 1009.8 hPa | 0 mm | - | 974 W/m² | - |
| 1778353675 | 29.44° C | 58% | 1009.8 hPa | 0 mm | - | 988 W/m² | - |
| 1778353594 | 29.44° C | 57% | 1009.9 hPa | 0 mm | - | 990 W/m² | - |
| 1778353533 | 29.44° C | 58% | 1009.9 hPa | 0 mm | - | 1002 W/m² | - |
| 1778353472 | 29.44° C | 59% | 1009.9 hPa | 0 mm | - | 992 W/m² | - |
| 1778353412 | 29.44° C | 57% | 1009.9 hPa | 0 mm | - | 988 W/m² | - |
| 1778353353 | 29.44° C | 59% | 1009.9 hPa | 0 mm | - | 990 W/m² | - |
| 1778353292 | 29.44° C | 59% | 1010 hPa | 0 mm | - | 990 W/m² | - |
| 1778353231 | 29.44° C | 58% | 1010 hPa | 0 mm | - | 999 W/m² | - |
| 1778353173 | 29.44° C | 59% | 1010 hPa | 0 mm | - | 1015 W/m² | - |
| 1778353112 | 29.44° C | 58% | 1010 hPa | 0 mm | - | 1025 W/m² | - |
| 1778353053 | 29.44° C | 58% | 1010 hPa | 0 mm | - | 1048 W/m² | - |
| 1778352993 | 29.44° C | 60% | 1010 hPa | 0 mm | - | 1055 W/m² | - |
| 1778352932 | 29.44° C | 61% | 1010.1 hPa | 0 mm | - | 1050 W/m² | - |
| 1778352866 | 29.44° C | 59% | 1010.1 hPa | 0 mm | - | 1044 W/m² | - |
| 1778352805 | 29.44° C | 60% | 1010.1 hPa | 0 mm | - | 1053 W/m² | - |
| 1778352744 | 29.44° C | 63% | 1010.1 hPa | 0 mm | - | 1057 W/m² | - |
| 1778352682 | 28.89° C | 65% | 1010.1 hPa | 0 mm | - | 1055 W/m² | - |
| 1778352620 | 28.89° C | 64% | 1010.1 hPa | 0 mm | - | 1069 W/m² | - |
| 1778352559 | 28.89° C | 63% | 1010.1 hPa | 0 mm | - | 1055 W/m² | - |
| 1778352497 | 28.89° C | 63% | 1010.1 hPa | 0 mm | - | 1041 W/m² | - |
| 1778352438 | 28.89° C | 63% | 1010.1 hPa | 0 mm | - | 1041 W/m² | - |
| 1778352376 | 28.89° C | 64% | 1010.1 hPa | 0 mm | - | 1081 W/m² | - |
| 1778352312 | 28.89° C | 65% | 1010.1 hPa | 0 mm | - | 997 W/m² | - |
| 1778352251 | 28.89° C | 64% | 1010.1 hPa | 0 mm | - | 1002 W/m² | - |
* Rain latest hour (hover to see other rain measurements)
** Current wind speed in m/s (hover to see current wind gust speed)